Waarnemingen

Advertentie
Mijn weer
Spa/La Sauveniere, België (6490): temperatuur & dauwpunt: 19.11.2020 16:00:00 - 25.11.2020 16:00:00 (CET)Spa/La Sauveniere, België (6490): windsnelheid & windstoten: 19.11.2020 16:00:00 - 25.11.2020 16:00:00 (CET)Spa/La Sauveniere, België (6490): windrichting: 19.11.2020 16:00:00 - 25.11.2020 16:00:00 (CET)Spa/La Sauveniere, België (6490): luchtdruk: 19.11.2020 16:00:00 - 25.11.2020 16:00:00 (CET)Spa/La Sauveniere, België (6490): zicht: 19.11.2020 16:00:00 - 25.11.2020 16:00:00 (CET)
Datum & Tijd tt [°C] td [°C] ff [km/u] ff [kn] fx [km/u] fx [kn] dd ppp [hPa] vv [km]
25.11.2020 16:00:00 6,2 4,4 11 6 - - Z 1018,2 11
25.11.2020 15:00:00 6,1 3,9 14 8 25 14 Z 1018,3 11
25.11.2020 14:00:00 6,0 3,9 11 6 29 16 Z 1017,9 -
25.11.2020 13:00:00 5,7 4,2 11 6 - - Z 1018,2 -
25.11.2020 12:00:00 4,8 3,5 22 12 36 19 Z 1018,1 -
25.11.2020 11:00:00 4,0 3,0 7 4 25 14 ZZO 1018,6 5
25.11.2020 10:00:00 3,1 2,5 14 8 - - ZZO 1018,7 4,2
25.11.2020 09:00:00 2,6 1,3 14 8 40 21 ZZO 1018,6 4,2
25.11.2020 08:00:00 2,5 2,0 25 14 50 27 Z 1017,6 3,7
25.11.2020 07:00:00 2,5 1,7 36 19 - - ZZO 1017,0 4,1
25.11.2020 06:00:00 2,6 1,8 36 19 50 27 ZZO 1017,0 4,7
25.11.2020 05:00:00 2,7 1,8 32 18 54 29 ZZO 1017,5 5
25.11.2020 04:00:00 2,6 1,6 36 19 - - ZZO 1017,6 5
25.11.2020 03:00:00 2,5 1,6 36 19 54 29 ZZO 1018,0 5
25.11.2020 02:00:00 2,5 1,7 36 19 50 27 ZZO 1018,2 -
25.11.2020 01:00:00 2,5 1,7 32 18 - - ZZO 1019,1 -
25.11.2020 00:00:00 2,5 2,0 32 18 50 27 ZZO 1019,6 5
24.11.2020 23:00:00 2,5 2,0 32 18 47 25 ZZO 1019,9 -
24.11.2020 22:00:00 2,5 1,0 36 19 - - ZZO 1020,4 -
24.11.2020 21:00:00 3,0 3,0 32 18 47 25 ZZO 1020,6 -
24.11.2020 20:00:00 3,5 0,5 32 18 47 25 ZZO 1020,6 -
24.11.2020 19:00:00 3,7 2,9 32 18 - - ZZO 1020,8 12
24.11.2020 18:00:00 3,8 3,1 32 18 43 23 ZZO 1020,9 16
24.11.2020 17:00:00 4,2 3,9 22 12 32 18 ZZO 1021,5 17
24.11.2020 16:00:00 5,2 4,5 22 12 - - ZZO 1021,7 27
24.11.2020 15:00:00 6,3 4,1 18 10 25 14 ZZO 1022,1 35
24.11.2020 14:00:00 6,7 4,3 18 10 29 16 ZZO 1022,6 26
24.11.2020 13:00:00 6,1 4,7 22 12 - - ZZO 1023,3 26
24.11.2020 12:00:00 6,1 4,0 18 10 32 18 ZZO 1024,2 19
24.11.2020 11:00:00 5,9 4,7 11 6 29 16 Z 1024,9 12
24.11.2020 10:00:00 5,5 4,5 14 8 - - ZZO 1025,2 -
24.11.2020 09:00:00 5,5 5,0 14 8 22 12 Z 1025,6 11
24.11.2020 08:00:00 5,7 4,6 11 6 22 12 ZZW 1025,6 40
24.11.2020 07:00:00 5,6 5,0 7 4 - - ZZW 1026,0 15
24.11.2020 06:00:00 5,7 4,8 7 4 22 12 ZZW 1026,5 13
24.11.2020 05:00:00 5,8 5,1 14 8 29 16 Z 1026,4 9
24.11.2020 04:00:00 5,7 4,9 18 10 - - ZZO 1026,8 14
24.11.2020 03:00:00 5,9 4,7 18 10 29 16 Z 1027,2 22
24.11.2020 02:00:00 6,0 4,9 18 10 29 16 Z 1027,6 40
24.11.2020 01:00:00 5,8 5,2 7 4 - - ZZW 1028,3 19
24.11.2020 00:00:00 5,9 4,8 14 8 25 14 Z 1028,6 16
23.11.2020 23:00:00 5,6 5,0 14 8 25 14 Z 1029,1 27
23.11.2020 22:00:00 5,6 4,7 11 6 - - Z 1029,3 20
23.11.2020 21:00:00 5,8 5,0 14 8 25 14 Z 1029,5 11
23.11.2020 20:00:00 5,7 4,7 14 8 25 14 Z 1029,7 15
23.11.2020 19:00:00 5,6 4,6 14 8 - - Z 1029,3 10
23.11.2020 18:00:00 5,5 5,0 14 8 22 12 Z 1029,2 11
23.11.2020 17:00:00 5,3 5,0 11 6 18 10 Z 1028,9 -
23.11.2020 16:00:00 6,3 5,1 7 4 - - Z 1029,1 13
23.11.2020 15:00:00 6,5 5,4 7 4 14 8 ZZW 1029,3 -
23.11.2020 14:00:00 6,5 5,9 7 4 14 8 WZW 1029,9 -
23.11.2020 13:00:00 6,6 5,3 4 2 - - W 1029,8 10
23.11.2020 12:00:00 6,3 5,4 4 2 11 6 - 1029,9 -
23.11.2020 11:00:00 6,2 5,6 4 2 11 6 N 1029,9 -
23.11.2020 10:00:00 5,6 5,4 4 2 - - WNW 1029,6 4,1
23.11.2020 09:00:00 5,6 5,6 7 4 14 8 NW 1029,2 1,7
23.11.2020 08:00:00 5,7 5,7 7 4 18 10 W 1028,7 1,2
23.11.2020 07:00:00 5,5 5,5 7 4 - - W 1028,2 1,9
23.11.2020 06:00:00 5,5 5,5 7 4 14 8 WZW 1027,8 4,2
23.11.2020 05:00:00 5,6 5,4 7 4 11 6 WZW 1027,6 11
23.11.2020 04:00:00 5,5 5,5 7 4 - - W 1027,7 0,5
23.11.2020 03:00:00 5,5 5,5 7 4 18 10 W 1027,8 1,7
23.11.2020 02:00:00 5,7 5,7 7 4 18 10 W 1027,7 0,3
23.11.2020 01:00:00 5,9 5,9 11 6 - - W 1027,5 0,2
23.11.2020 00:00:00 6,0 6,0 11 6 18 10 W 1027,4 1,6
22.11.2020 23:00:00 6,1 6,1 11 6 18 10 W 1027,3 1,1
22.11.2020 22:00:00 6,1 6,1 7 4 - - WZW 1027,4 1,2
22.11.2020 21:00:00 6,3 6,2 7 4 14 8 WZW 1027,4 2,0
22.11.2020 20:00:00 6,3 6,2 7 4 18 10 WZW 1027,4 2,2
22.11.2020 19:00:00 6,3 6,2 11 6 - - WZW 1027,3 2,7
22.11.2020 18:00:00 6,3 6,1 11 6 22 12 W 1027,1 3,3
22.11.2020 17:00:00 6,5 6,3 11 6 25 14 WZW 1026,8 2,3
22.11.2020 16:00:00 6,7 6,5 11 6 - - WZW 1026,8 2,4
22.11.2020 15:00:00 6,7 6,6 11 6 22 12 WZW 1026,8 2,4
22.11.2020 14:00:00 6,6 6,5 11 6 25 14 WZW 1027,2 2,1
22.11.2020 13:00:00 6,4 6,3 14 8 - - WZW 1027,6 -
22.11.2020 12:00:00 6,3 6,1 14 8 25 14 WZW 1028,1 4,2
22.11.2020 11:00:00 6,4 6,1 11 6 25 14 WZW 1028,0 2,4
22.11.2020 10:00:00 6,4 6,3 14 8 - - ZW 1028,1 13
22.11.2020 09:00:00 6,1 5,8 14 8 25 14 WZW 1028,1 -
22.11.2020 08:00:00 6,0 5,8 11 6 29 16 ZW 1028,0 -
22.11.2020 07:00:00 5,9 5,4 14 8 - - ZW 1028,1 -
22.11.2020 06:00:00 5,9 5,5 14 8 29 16 WZW 1028,0 4,0
22.11.2020 05:00:00 5,3 4,7 14 8 32 18 WZW 1028,1 4,5
22.11.2020 04:00:00 5,7 4,6 14 8 - - WZW 1028,0 -
22.11.2020 03:00:00 5,7 4,5 18 10 29 16 ZW 1028,1 17
22.11.2020 02:00:00 5,2 3,6 14 8 36 19 ZZW 1028,6 15
22.11.2020 01:00:00 5,5 3,7 14 8 - - ZZW 1028,6 30
22.11.2020 00:00:00 5,0 3,5 18 10 32 18 Z 1029,2 30
21.11.2020 23:00:00 5,1 3,5 18 10 32 18 ZZW 1029,7 25
21.11.2020 22:00:00 5,2 3,4 18 10 - - ZZW 1029,9 35
21.11.2020 21:00:00 4,7 3,0 22 12 36 19 ZZW 1030,1 30
21.11.2020 20:00:00 4,7 2,8 14 8 25 14 ZW 1030,9 30
21.11.2020 19:00:00 4,5 2,8 18 10 - - ZW 1030,8 30
21.11.2020 18:00:00 4,4 2,2 14 8 32 18 ZZW 1030,9 30
21.11.2020 17:00:00 4,6 2,1 18 10 32 18 Z 1030,6 40
21.11.2020 16:00:00 5,4 2,1 14 8 - - ZZW 1030,7 35
21.11.2020 15:00:00 6,2 2,4 14 8 32 18 ZW 1030,8 35
21.11.2020 14:00:00 5,7 2,3 14 8 29 16 ZZW 1031,2 30
21.11.2020 13:00:00 4,8 1,6 22 12 - - Z 1031,7 35
21.11.2020 12:00:00 3,9 1,0 22 12 36 19 Z 1032,5 30
21.11.2020 11:00:00 2,4 0,6 18 10 32 18 Z 1033,2 21
21.11.2020 10:00:00 1,6 -0,2 14 8 - - Z 1033,8 28
21.11.2020 09:00:00 0,6 -0,9 18 10 32 18 Z 1033,9 22
21.11.2020 08:00:00 0,6 -1,0 22 12 32 18 Z 1033,9 17
21.11.2020 07:00:00 0,7 -0,5 11 6 - - ZZW 1034,5 14
21.11.2020 06:00:00 0,6 -0,7 14 8 29 16 Z 1034,4 12
21.11.2020 05:00:00 0,2 -1,0 22 12 32 18 Z 1034,2 11
21.11.2020 04:00:00 -0,2 -1,2 22 12 - - Z 1034,4 10
21.11.2020 03:00:00 0,0 -1,2 14 8 25 14 Z 1035,4 11
21.11.2020 02:00:00 -0,1 -1,1 14 8 25 14 Z 1035,2 12
21.11.2020 01:00:00 -0,1 -1,1 18 10 - - Z 1036,2 13
21.11.2020 00:00:00 -0,1 -0,9 11 6 18 10 Z 1036,2 14
20.11.2020 23:00:00 -0,7 -1,5 11 6 18 10 ZZO 1036,5 16
20.11.2020 22:00:00 -0,6 -1,6 14 8 - - Z 1036,8 20
20.11.2020 21:00:00 -0,4 -1,6 11 6 14 8 Z 1037,0 21
20.11.2020 20:00:00 0,1 -1,0 11 6 14 8 Z 1036,6 22
20.11.2020 19:00:00 0,0 -2,4 7 4 - - ZZW 1036,9 18
20.11.2020 18:00:00 0,0 -1,0 7 4 11 6 ZZW 1036,6 14
20.11.2020 17:00:00 0,6 0,2 7 4 11 6 Z 1036,5 15
20.11.2020 16:00:00 3,2 0,7 7 4 - - ZW 1035,8 35
20.11.2020 15:00:00 3,6 0,6 4 2 11 6 ZW 1035,8 35
20.11.2020 14:00:00 3,8 1,0 4 2 11 6 W 1036,2 25
20.11.2020 13:00:00 3,0 1,6 7 4 - - WZW 1036,6 17
20.11.2020 12:00:00 2,6 1,7 11 6 14 8 W 1037,1 11
20.11.2020 11:00:00 2,6 1,7 7 4 11 6 WZW 1036,8 -
20.11.2020 10:00:00 2,1 1,7 7 4 - - WNW 1035,9 4,0
20.11.2020 09:00:00 2,3 2,1 7 4 11 6 ZW 1035,4 4,5
20.11.2020 08:00:00 2,2 2,1 4 2 22 12 W 1035,3 2,5
20.11.2020 07:00:00 2,4 2,4 7 4 - - NW 1034,4 1,2
20.11.2020 06:00:00 2,3 2,2 7 4 14 8 WNW 1034,0 4,0
20.11.2020 05:00:00 2,3 2,3 7 4 18 10 WNW 1033,9 -
20.11.2020 04:00:00 2,4 2,4 7 4 - - WNW 1034,0 4,5
20.11.2020 03:00:00 2,5 2,5 7 4 14 8 WNW 1033,8 1,0
20.11.2020 02:00:00 2,7 2,7 7 4 11 6 W 1034,0 0,9
20.11.2020 01:00:00 2,7 2,7 4 2 - - W 1033,9 0,2
20.11.2020 00:00:00 3,0 3,0 4 2 14 8 WNW 1033,1 0,8
19.11.2020 23:00:00 3,4 3,3 7 4 14 8 WNW 1032,7 0,9
19.11.2020 22:00:00 3,9 3,9 7 4 - - WNW 1031,6 1,1
19.11.2020 21:00:00 4,3 4,1 7 4 22 12 NW 1030,8 -
19.11.2020 20:00:00 5,0 4,6 11 6 32 18 N 1029,4 -
19.11.2020 19:00:00 5,1 4,8 22 12 - - NNW 1029,1 7
19.11.2020 18:00:00 5,1 4,9 11 6 32 18 NW 1027,6 2,6
19.11.2020 17:00:00 5,2 4,8 18 10 32 18 WNW 1026,5 4,7
19.11.2020 16:00:00 5,3 4,8 14 8 - - W 1025,5 9

tt = temperatuur
td = dauwpunt
ff = windsnelheid
fx = windstoten
dd = windrichting
ppp = luchtdruk
vv = zicht

Weerstations in de omgeving